Location: Unspecified
(0.0000°N, 0.0000°E)
Time: 17:35:19
(UTC+00:00)

Vanguard 1 - Pass Details

Date: 12 December 2017
Orbit: 650 x 3833 km, 34.3° (Epoch: 19 June)

Event Time Altitude Azimuth Distance (km) Brightness Sun altitude
Rises 05:35:12 0° 230° (SW) 6,729 14.1 -4.3°
Reaches altitude 10° 05:39:07 10° 229° (SW) 6,025 13.8 -3.4°
Maximum altitude 06:00:32 82° 141° (SE) 3,847 13.2 1.6°
Drops below altitude 10° 06:23:02 10° 55° (NE) 6,295 14.7 6.7°
Sets 06:27:13 0° 55° (NE) 7,028 14.9 7.7°
